星链-5325 (STARLINK-5325 )

导读 | 星芒AI

STARLINK-5325 是 SpaceX Starlink 项目中的一颗低轨通信卫星,属于第二代 Starlink 卫星(Gen2)。它于 2024 年发射,旨在为全球提供高速、低延迟的互联网服务。该卫星采用先进推进系统和激光通信技术,提升网络效率和覆盖能力。作为 Starlink 卫星群的一部分,STARLINK-5325 支持农村和偏远地区的宽带接入,助力全球数字连接。其部署进一步推动了 SpaceX 在商业航天和全球通信领域的领先地位。

基本信息
目录编号:
55292
目录名称:
STARLINK-5325
国际标识:
2023-010Z
轨道中心:
EARTH
卫星名称:
星链-5325
卫星全名:
星链-5325 (STARLINK-5325 )
卫星状态:
在轨 (已飞行1020 天)
发射日期:
2023-01-19 UTC
国别 :
美国 (US)
星等 :
--
轨道信息
数据来源 国际轨道数据
星历时间: 2025-11-04T19:18:33+0800
8小时前
查看轨道信息
半长轴: 6950.229km
偏心率: 0.0002594
轨道倾角: 70.001°
近地点辐角 259.195°
升交点赤经 340.136°
平近点角 100.892°
近地点: 570.291km
远地点: 573.897km
周期: 96.108分钟
每日圈数: 14.983184
详细信息
固有亮度:
5
最大亮度:
2.5
卫星平台:
Starlink v1.5
覆盖范围:
全球
运营商:
太空探索技术公司
运营商所在国:
美国
制造商(研发单位):
太空探索技术公司
制造商所在国:
美国
使用方式:
暂无
卫星简介
星链(Starlink)计划是由太空探索技术公司(SpaceX)提出的一个巨型低轨卫星互联网星座项目,计划在2019年至2024年间在太空搭建由约1.2万颗卫星组成的“星链”网络,其中1584颗将部署在地球上空550千米处的近地轨道,并从2020年开始工作。该卫星仍在工作。
2D轨道图
3D轨道图
轨道高度分析图
轨道倾角分析图
轨道综合分析图
查看轨道综合分析图